sat.trackr.live / text

‹ back to catalog

IO-1

NORAD 68498 · 2026-067CL

PAYLOAD ACTIVE UNKNOWN

§ Identity

Operator
Country
UK
Launch date
2026-03-30
Launch site
AFWTR
Launch vehicle
Mass (kg)
RCS (m²)

External: N2YO · Heavens-Above · Gunter

§ Orbital elements

Epoch: 2026-05-24T09:16:51.706848Z

Period
96.55 min
Inclination
97.7535°
Eccentricity
0.0003831
Mean motion
14.91389090 rev/d
Perigee alt
590.9 km
Apogee alt
596.3 km
Semi-major
6,971.7 km
B*
1.1008e-4
RAAN
102.9413°
Arg perigee
119.9707°
Mean anomaly
240.1892°
Rev number
817

§ Raw data

IO-11 68498U 26067CL  26144.38670957  .00001043  00000+0  11008-3 0  99982 68498  97.7535 102.9413 0003831 119.9707 240.1892 14.91389090  8178

JSON: /api/v1/satellites/68498 · /tle

For live sub-satellite position, see the globe view (requires WebGL).

§ Visibility from observer

Set your observer location to see the next 7 days of passes ≥ 10°. The values pass through the URL so the page stays shareable.

No JS? Fill the form by hand. The geolocation button needs JavaScript.